7L2IWN-13 Weather Reports


time (UTC)temp
F
wind
direction
speed
knots
gust
knots
rain 1hr
in
rain 24hr
in
rain mn
in
humidity
%
barometer
mb
20260902221204 74 246 0.9 1.7 0.00 0.00 0.00 99 1010.9
20260902220004 74 299 0.9 1.7 0.00 0.00 0.00 99 1010.9
20260902214803 74 304 0.0 0.0 0.00 0.00 0.00 99 1010.8
20260902213604 73 294 0.0 0.0 0.00 0.00 0.00 99 1010.8
20260902212403 73 266 0.0 0.0 0.00 0.00 0.00 99 1011.1
20260902211203 73 271 0.0 0.0 0.00 0.00 0.00 99 1011.1
20260902210004 73 272 0.0 0.0 0.00 0.00 0.00 99 1011.3
20260902204804 73 9 0.0 0.0 0.00 0.00 0.00 99 1011.1
20260902203602 73 307 1.7 1.7 0.00 0.00 0.00 99 1011.2
20260902202403 73 220 1.7 1.7 0.00 0.00 0.00 99 1011.2
20260902201203 73 311 0.9 1.7 0.00 0.00 0.00 99 1011.0
20260902200004 73 342 0.0 0.0 0.00 0.00 0.00 99 1011.0
20260902194802 73 342 0.0 0.0 0.00 0.00 0.00 99 1011.1
20260902193602 73 346 0.9 1.7 0.00 0.00 0.00 99 1011.7
20260902192404 73 288 0.0 0.0 0.00 0.00 0.00 99 1011.8
20260902191203 73 250 0.0 0.0 0.00 0.00 0.00 99 1012.0
20260902190003 74 296 0.9 1.7 0.00 0.00 0.00 99 1011.8
20260902184803 73 246 0.0 0.0 0.00 0.00 0.00 99 1011.9
20260902183602 74 295 0.9 1.7 0.00 0.00 0.00 99 1012.0
20260902182402 74 253 0.9 1.7 0.00 0.00 0.00 99 1011.9
20260902181203 74 343 0.0 0.0 0.00 0.00 0.00 99 1012.0
20260902180004 74 343 0.0 0.0 0.00 0.00 0.00 99 1012.0
20260902174802 74 343 0.0 0.0 0.00 0.00 0.00 99 1012.2
20260902173602 74 263 0.0 0.0 0.00 0.00 0.00 99 1012.0
20260902172403 74 263 0.0 0.9 0.00 0.00 0.00 99 1012.4
20260902171201 74 262 0.0 0.0 0.00 0.00 0.00 99 1012.6
20260902170004 74 262 0.9 1.7 0.00 0.00 0.00 99 1013.0
20260902164803 74 267 0.0 0.0 0.00 0.00 0.00 99 1012.9
20260902163603 74 267 0.0 0.0 0.00 0.00 0.00 99 1012.8
20260902162403 74 267 0.0 0.0 0.00 0.00 0.00 99 1012.9
20260902161203 74 267 0.9 0.9 0.00 0.00 0.00 99 1012.8
20260902160005 74 296 0.9 1.7 0.00 0.00 0.00 99 1012.7
20260902154802 74 237 1.7 1.7 0.00 0.00 0.00 99 1012.5
20260902153602 74 201 1.7 2.6 0.00 0.00 0.00 99 1012.6
20260902152404 74 329 0.0 0.0 0.00 0.00 0.00 99 1012.8
20260902151203 75 111 0.9 0.9 0.00 0.00 0.00 99 1012.7
20260902150003 75 158 0.0 0.9 0.00 0.00 0.00 99 1013.0
20260902144802 75 217 0.9 1.7 0.00 0.00 0.00 99 1012.9
20260902143603 75 234 0.0 0.0 0.00 0.00 0.00 99 1013.3
20260902142405 75 224 0.0 0.9 0.00 0.00 0.00 99 1013.3
20260902141202 75 229 0.0 0.0 0.00 0.00 0.00 99 1013.5
20260902140004 75 246 0.0 0.0 0.00 0.00 0.00 99 1013.3
20260902134803 75 215 0.9 1.7 0.00 0.00 0.00 99 1013.5
20260902133602 75 324 0.9 0.9 0.00 0.00 0.00 99 1013.4
20260902132403 76 209 0.0 0.0 0.00 0.00 0.00 99 1013.4
20260902131201 76 210 0.9 1.7 0.00 0.00 0.00 99 1013.6
20260902130003 76 176 0.9 1.7 0.00 0.00 0.00 99 1013.3
20260902124802 76 324 1.7 2.6 0.00 0.00 0.00 99 1013.4
20260902123602 76 208 0.0 0.0 0.00 0.00 0.00 99 1013.6
20260902122402 76 223 1.7 1.7 0.00 0.00 0.00 99 1013.7
20260902121204 76 289 0.9 1.7 0.00 0.00 0.00 99 1013.6
20260902120002 76 284 0.0 0.9 0.00 0.00 0.00 99 1013.9
20260902114803 77 190 0.9 1.7 0.00 0.00 0.00 99 1013.7
20260902113603 77 217 0.9 1.7 0.00 0.00 0.00 99 1013.8
20260902112402 77 262 0.9 1.7 0.00 0.00 0.00 99 1013.7
20260902111204 77 239 1.7 1.7 0.00 0.00 0.00 98 1013.9
20260902110007 78 241 1.7 2.6 0.00 0.00 0.00 98 1013.6
20260902104802 78 206 0.0 0.9 0.00 0.00 0.00 98 1013.7
20260902103604 78 306 1.7 1.7 0.00 0.00 0.00 97 1013.8
20260902102402 78 200 0.0 0.9 0.00 0.00 0.00 97 1013.6
20260902101203 78 217 0.9 0.9 0.00 0.00 0.00 96 1013.2
20260902100002 79 300 0.9 0.9 0.00 0.00 0.00 96 1013.2
20260902094802 79 206 0.9 1.7 0.00 0.00 0.00 95 1013.1
20260902093602 79 271 0.9 2.6 0.00 0.00 0.00 94 1012.9
20260902092402 80 226 2.6 4.3 0.00 0.00 0.00 94 1012.9
20260902091204 80 232 0.9 2.6 0.00 0.00 0.00 93 1012.9
20260902090002 81 237 0.9 1.7 0.00 0.00 0.00 92 1012.7
20260902084801 81 246 2.6 4.3 0.00 0.00 0.00 93 1012.8
20260902083602 82 251 2.6 4.3 0.00 0.00 0.00 91 1012.8
20260902082403 82 315 1.7 2.6 0.00 0.00 0.00 90 1012.7
20260902081203 83 264 1.7 2.6 0.00 0.00 0.00 87 1012.7
20260902080003 84 282 1.7 2.6 0.00 0.00 0.00 87 1012.8
20260902074802 84 309 0.9 1.7 0.00 0.00 0.00 84 1012.5
20260902073603 85 337 0.0 0.9 0.00 0.00 0.00 82 1012.4
20260902072403 84 328 0.0 0.9 0.00 0.00 0.00 83 1012.5
20260902071202 86 26 0.9 2.6 0.00 0.00 0.00 81 1012.4
20260902070004 85 347 0.9 1.7 0.00 0.00 0.00 80 1012.4
20260902064803 85 3 1.7 2.6 0.00 0.00 0.00 80 1012.2
20260902063603 86 348 1.7 4.3 0.00 0.00 0.00 77 1012.3
20260902062403 88 18 0.9 1.7 0.00 0.00 0.00 75 1012.3
20260902061202 86 15 1.7 4.3 0.00 0.00 0.00 76 1012.3
20260902060002 87 342 2.6 5.2 0.00 0.00 0.00 75 1012.2
20260902054803 88 10 4.3 7.0 0.00 0.00 0.00 73 1012.5
20260902053602 88 348 1.7 5.2 0.00 0.00 0.00 71 1012.1
20260902052402 89 61 1.7 2.6 0.00 0.00 0.00 70 1012.5
20260902051202 89 19 4.3 6.1 0.00 0.00 0.00 70 1012.8
20260902050002 88 340 4.3 5.2 0.00 0.00 0.00 71 1012.6
20260902044803 89 32 0.9 1.7 0.00 0.00 0.00 69 1013.1
20260902043603 88 345 1.7 2.6 0.00 0.00 0.00 70 1013.2
20260902042404 88 31 0.9 1.7 0.00 0.00 0.00 69 1013.0
20260902041203 87 72 2.6 5.2 0.00 0.00 0.00 71 1013.3
20260902040002 86 326 2.6 6.1 0.00 0.00 0.00 73 1013.2
20260902034803 87 75 2.6 5.2 0.00 0.00 0.00 71 1013.3
20260902033603 87 59 0.9 0.9 0.00 0.00 0.00 71 1013.8
20260902032403 86 24 2.6 5.2 0.00 0.00 0.00 73 1013.5
20260902031202 87 93 0.9 4.3 0.00 0.00 0.00 71 1013.4
20260902030003 86 50 0.9 1.7 0.00 0.00 0.00 73 1013.9
20260902024802 85 48 2.6 4.3 0.00 0.00 0.00 74 1013.9
20260902023602 86 41 1.7 5.2 0.00 0.00 0.00 75 1014.0
20260902022403 84 95 0.0 0.9 0.00 0.00 0.00 76 1014.1
20260902021202 81 323 0.9 2.6 0.00 0.00 0.00 80 1014.2
20260902020002 83 10 0.9 1.7 0.00 0.00 0.00 80 1014.3
20260902014803 81 30 2.6 4.3 0.00 0.00 0.00 83 1014.6
20260902013602 80 339 1.7 2.6 0.00 0.00 0.00 85 1014.5
20260902012403 81 54 0.9 1.7 0.00 0.00 0.00 81 1014.6
20260902011202 82 26 1.7 1.7 0.00 0.00 0.00 83 1014.6
20260902010003 80 13 0.0 0.9 0.00 0.00 0.00 83 1015.0
20260902004801 81 27 0.9 1.7 0.00 0.00 0.00 86 1015.1
20260902003603 79 114 0.0 0.0 0.00 0.00 0.00 89 1015.1
20260902002403 79 148 1.7 2.6 0.00 0.00 0.00 89 1014.8
20260902001203 77 123 0.0 0.9 0.00 0.00 0.00 92 1015.0
20260902000005 77 93 0.0 0.9 0.00 0.00 0.00 93 1015.0
20260901234803 76 70 0.9 1.7 0.00 0.00 0.00 94 1015.0
20260901233605 76 44 0.0 0.9 0.00 0.00 0.00 94 1014.9
20260901232404 75 97 0.0 0.0 0.00 0.00 0.00 94 1014.9
20260901231204 75 144 0.0 0.9 0.00 0.00 0.00 96 1014.9
20260901230004 74 203 1.7 2.6 0.00 0.00 0.00 97 1014.8
20260901224803 74 198 0.9 1.7 0.00 0.00 0.00 99 1014.9
20260901223604 73 287 0.0 0.0 0.00 0.00 0.00 99 1014.8
20260901222404 73 260 0.0 0.9 0.00 0.00 0.00 99 1014.9